Regional Weather Roundup
Issued by NWS

Home | Current Version | Previous Version | Graphics & Text | Print | Product List | Glossary On
Versions: 1 2 3 4 5 6 7 8 9 10 11 12 13 14 15 16 17 18 19 20 21 22 23 24 25 26 27 28 29 30 31 32 33 34 35 36 37 38 39 40 41 42 43 44 45 46 47 48 49 50
000
ASUS45 KCYS 220110
RWRWY

WYOMING REGIONAL WEATHER ROUNDUP
NATIONAL WEATHER SERVICE CHEYENNE WY
600 PM MST SUN DEC 21 2014

NOTE:  "FAIR" INDICATES FEW OR NO CLOUDS BELOW 12,000 FEET
WITH NO SIGNIFICANT WEATHER AND/OR OBSTRUCTIONS TO VISIBILITY.

WYZ001-220200-
YELLOWSTONE NATIONAL PARK

CITY           SKY/WX    TMP DP  RH WIND       PRES   REMARKS
LK YELLOWSTONE   N/A     26  20  77 W12G22    29.73R WCI  16
W YELLOWSTONE  NOT AVBL

$$
WYZ002>013-054>058-071-098>099-220200-
NORTHERN WYOMING

CITY           SKY/WX    TMP DP  RH WIND       PRES   REMARKS
JACKSON        MOCLDY    37  23  56 W6        29.77R WCI  33
CODY           MOCLDY    36  28  75 W3        29.61R
GREYBULL       FAIR      34  32  92 CALM      29.61R
WORLAND        CLOUDY    34  32  92 S9        29.63R WCI  27
SHERIDAN       CLOUDY    40  27  59 NW21G35   29.55R WCI  30
BUFFALO        MOCLDY    37  25  61 N24G40    29.54R WCI  26
GILLETTE       FAIR      37  28  70 W12       29.50R WCI  29
HULETT           N/A    N/A N/A N/A MISG        N/A
NEWCASTLE      LGT RAIN  32  32 100 NW6       29.50R WCI  26

$$
WYZ014>020-022>026-101>103-220200-
CENTRAL WYOMING

CITY           SKY/WX    TMP DP  RH WIND       PRES   REMARKS
BIG PINEY      LGT SNOW  33  29  85 N39G48    29.74R FOG     WCI  17
PINEDALE       LGT SNOW  32  32 100 NW23G29   29.74R VSB 1   WCI  19
DUBOIS         NOT AVBL
LANDER         FAIR      35  25  66 SW10      29.63R WCI  27
RIVERTON       FAIR      32  28  85 N14       29.65R WCI  22
CASPER         LGT SNOW  33  31  92 N21G30    29.63R FOG     WCI  21
DOUGLAS        FLURRIES  34  32  92 NW22G32   29.58R WCI  22

$$
WYZ021-027>030-104>119-220200-
SOUTHERN WYOMING

CITY           SKY/WX    TMP DP  RH WIND       PRES   REMARKS
EVANSTON       LGT RAIN  35  34  96 W16       29.86R WCI  25
KEMMERER       LGT SNOW  34  32  93 W30       29.81R WCI  20
FORT BRIDGER   LGT RAIN  36  36  99 W25G33    29.84R WCI  24
ROCK SPRINGS   CLOUDY    36  31  82 W36G51    29.72S WCI  22
DIXON          CLOUDY    38  32  79 W17G23    29.75R WCI  28
RAWLINS        CLOUDY    36  31  82 W29G41    29.65R WCI  23
SARATOGA       FAIR      36  32  87 W29G40    29.64R WCI  23
LARAMIE        MOCLDY    35  28  75 NW20      29.56S WCI  24
CHEYENNE       LGT RAIN  38  32  79 NW13      29.55S WCI  30
TORRINGTON     CLOUDY   N/A N/A N/A NW10      29.50R
PINE BLUFFS    DRIZZLE   41  34  75 NW21G40   29.56R

$$


USA.gov is the U.S. government's official web portal to all federal, state and local government web resources and services.